| time (UTC) | temp C | wind direction | speed KPH | gust KPH | rain 1hr cm | rain 24hr cm | rain mn cm | humidity % | barometer mb |
| 20260505073304 | 30 | 167 | 4.8 | 12.9 | 0.00 | 0.00 | 0.00 | 36 | 1015.1 |
| 20260505072804 | 30 | 134 | 3.2 | 9.7 | 0.00 | 0.00 | 0.00 | 36 | 1015.1 |
| 20260505072533 | 30 | 113 | 3.2 | 9.7 | 0.00 | 0.00 | 0.00 | 36 | 1015.2 |
| 20260505071802 | 30 | 89 | 4.8 | 9.7 | 0.00 | 0.00 | 0.00 | 36 | 1015.2 |
| 20260505071523 | 30 | 50 | 4.8 | 9.7 | 0.00 | 0.00 | 0.00 | 36 | 1015.4 |
| 20260505070800 | 30 | 23 | 4.8 | 12.9 | 0.00 | 0.00 | 0.00 | 35 | 1015.5 |
| 20260505070300 | 30 | 136 | 4.8 | 12.9 | 0.00 | 0.00 | 0.00 | 36 | 1015.5 |
| 20260505065802 | 30 | 145 | 1.6 | 9.7 | 0.00 | 0.00 | 0.00 | 37 | 1015.6 |
| 20260505065526 | 30 | 173 | 3.2 | 9.7 | 0.00 | 0.00 | 0.00 | 35 | 1015.7 |
| 20260505064758 | 30 | 156 | 3.2 | 9.7 | 0.00 | 0.00 | 0.00 | 35 | 1015.7 |
| 20260505064258 | 30 | 155 | 3.2 | 9.7 | 0.00 | 0.00 | 0.00 | 35 | 1015.7 |
| 20260505063757 | 30 | 86 | 4.8 | 9.7 | 0.00 | 0.00 | 0.00 | 36 | 1015.7 |
| 20260505063256 | 30 | 112 | 3.2 | 12.9 | 0.00 | 0.00 | 0.00 | 37 | 1015.8 |
| 20260505063023 | 30 | 126 | 1.6 | 12.9 | 0.00 | 0.00 | 0.00 | 38 | 1015.8 |
| 20260505062256 | 29 | 71 | 3.2 | 6.4 | 0.00 | 0.00 | 0.00 | 37 | 1015.9 |
| 20260505061756 | 29 | 311 | 3.2 | 9.7 | 0.00 | 0.00 | 0.00 | 37 | 1016.0 |
| 20260505061257 | 29 | 29 | 4.8 | 9.7 | 0.00 | 0.00 | 0.00 | 38 | 1016.0 |
| 20260505060752 | 29 | 46 | 4.8 | 9.7 | 0.00 | 0.00 | 0.00 | 38 | 1016.1 |
| 20260505060254 | 29 | 5 | 3.2 | 9.7 | 0.00 | 0.00 | 0.00 | 37 | 1016.1 |
| 20260505055752 | 29 | 13 | 1.6 | 9.7 | 0.00 | 0.00 | 0.00 | 38 | 1016.1 |
| 20260505055527 | 29 | 316 | 3.2 | 8.0 | 0.00 | 0.00 | 0.00 | 39 | 1016.0 |
| 20260505054752 | 28 | 311 | 3.2 | 8.0 | 0.00 | 0.00 | 0.00 | 39 | 1016.1 |
| 20260505054254 | 28 | 14 | 3.2 | 8.0 | 0.00 | 0.00 | 0.00 | 40 | 1016.1 |
| 20260505053752 | 28 | 25 | 3.2 | 8.0 | 0.00 | 0.00 | 0.00 | 39 | 1016.1 |
| 20260505053252 | 28 | 32 | 3.2 | 8.0 | 0.00 | 0.00 | 0.00 | 41 | 1016.2 |
| 20260505052753 | 28 | 50 | 3.2 | 9.7 | 0.00 | 0.00 | 0.00 | 43 | 1016.2 |
| 20260505052250 | 28 | 327 | 3.2 | 11.3 | 0.00 | 0.00 | 0.00 | 43 | 1016.2 |
| 20260505052015 | 27 | 35 | 3.2 | 11.3 | 0.00 | 0.00 | 0.00 | 44 | 1016.2 |
| 20260505051248 | 27 | 34 | 4.8 | 9.7 | 0.00 | 0.00 | 0.00 | 44 | 1016.3 |
| 20260505050748 | 27 | 36 | 4.8 | 12.9 | 0.00 | 0.00 | 0.00 | 44 | 1016.2 |
| 20260505050248 | 27 | 34 | 3.2 | 12.9 | 0.00 | 0.00 | 0.00 | 44 | 1016.2 |
| 20260505041736 | 26 | 20 | 3.2 | 6.4 | 0.00 | 0.00 | 0.00 | 46 | 1016.2 |
| 20260505041233 | 26 | 334 | 3.2 | 6.4 | 0.00 | 0.00 | 0.00 | 48 | 1016.2 |
| 20260505040737 | 26 | 43 | 3.2 | 9.7 | 0.00 | 0.00 | 0.00 | 48 | 1016.2 |
| 20260505040231 | 26 | 40 | 3.2 | 9.7 | 0.00 | 0.00 | 0.00 | 47 | 1016.1 |
| 20260505035726 | 25 | 94 | 3.2 | 9.7 | 0.00 | 0.00 | 0.00 | 49 | 1016.0 |
| 20260505035228 | 25 | 48 | 3.2 | 9.7 | 0.00 | 0.00 | 0.00 | 48 | 1016.0 |
| 20260505034724 | 25 | 94 | 3.2 | 9.7 | 0.00 | 0.00 | 0.00 | 51 | 1016.0 |
| 20260505034228 | 25 | 130 | 1.6 | 6.4 | 0.00 | 0.00 | 0.00 | 49 | 1016.0 |
| 20260505033724 | 25 | 46 | 1.6 | 6.4 | 0.00 | 0.00 | 0.00 | 51 | 1016.0 |
| 20260505033224 | 25 | 88 | 1.6 | 4.8 | 0.00 | 0.00 | 0.00 | 51 | 1016.0 |
| 20260505032723 | 24 | 88 | 1.6 | 4.8 | 0.00 | 0.00 | 0.00 | 52 | 1016.0 |
| 20260505032224 | 24 | 88 | 3.2 | 6.4 | 0.00 | 0.00 | 0.00 | 52 | 1016.0 |
| 20260505031724 | 24 | 90 | 3.2 | 6.4 | 0.00 | 0.00 | 0.00 | 52 | 1016.0 |
| 20260505031228 | 24 | 92 | 3.2 | 6.4 | 0.00 | 0.00 | 0.00 | 53 | 1016.0 |
| 20260505030722 | 23 | 91 | 3.2 | 6.4 | 0.00 | 0.00 | 0.00 | 54 | 1015.9 |
| 20260505030224 | 23 | 92 | 3.2 | 9.7 | 0.00 | 0.00 | 0.00 | 55 | 1016.0 |
| 20260505025223 | 23 | 88 | 3.2 | 9.7 | 0.00 | 0.00 | 0.00 | 56 | 1015.8 |
| 20260505024219 | 22 | 90 | 3.2 | 9.7 | 0.00 | 0.00 | 0.00 | 56 | 1015.8 |
| 20260505023719 | 22 | 86 | 3.2 | 9.7 | 0.00 | 0.00 | 0.00 | 59 | 1015.8 |
| 20260505023440 | 21 | 85 | 1.6 | 6.4 | 0.00 | 0.00 | 0.00 | 60 | 1015.7 |
| 20260505022707 | 21 | 79 | 1.6 | 6.4 | 0.00 | 0.00 | 0.00 | 62 | 1015.7 |
| 20260505022200 | 20 | 78 | 0.0 | 6.4 | 0.00 | 0.00 | 0.00 | 66 | 1015.7 |
| 20260505021655 | 20 | 36 | 1.6 | 6.4 | 0.00 | 0.00 | 0.00 | 67 | 1015.6 |
| 20260505021149 | 20 | 36 | 3.2 | 6.4 | 0.00 | 0.00 | 0.00 | 68 | 1015.4 |
| 20260505020908 | 20 | 35 | 1.6 | 4.8 | 0.00 | 0.00 | 0.00 | 69 | 1015.4 |
| 20260505020409 | 19 | 34 | 1.6 | 6.4 | 0.00 | 0.00 | 0.00 | 70 | 1015.2 |
| 20260505015631 | 19 | 32 | 1.6 | 6.4 | 0.00 | 0.00 | 0.00 | 71 | 1015.1 |
| 20260505015125 | 19 | 23 | 0.0 | 0.0 | 0.00 | 0.00 | 0.00 | 73 | 1015.1 |
| 20260505014619 | 19 | 342 | 0.0 | 0.0 | 0.00 | 0.00 | 0.00 | 73 | 1015.0 |
| 20260505014113 | 19 | 339 | 0.0 | 0.0 | 0.00 | 0.00 | 0.00 | 73 | 1014.9 |
| 20260505013606 | 19 | 339 | 0.0 | 0.0 | 0.00 | 0.00 | 0.00 | 73 | 1014.9 |
| 20260505013102 | 18 | 339 | 0.0 | 0.0 | 0.00 | 0.00 | 0.00 | 73 | 1014.8 |
| 20260505012826 | 18 | 339 | 0.0 | 0.0 | 0.00 | 0.00 | 0.00 | 74 | 1014.7 |
| 20260505012049 | 18 | 340 | 0.0 | 0.0 | 0.00 | 0.00 | 0.00 | 74 | 1014.7 |
| 20260505011543 | 18 | 345 | 0.0 | 0.0 | 0.00 | 0.00 | 0.00 | 74 | 1014.6 |
| 20260505011037 | 18 | 344 | 0.0 | 0.0 | 0.00 | 0.00 | 0.00 | 74 | 1014.6 |
| 20260505010531 | 18 | 344 | 0.0 | 0.0 | 0.00 | 0.00 | 0.00 | 74 | 1014.5 |
| 20260505010025 | 18 | 344 | 0.0 | 0.0 | 0.00 | 0.00 | 0.00 | 74 | 1014.5 |
| 20260505005519 | 18 | 344 | 0.0 | 0.0 | 0.00 | 0.00 | 0.00 | 74 | 1014.4 |
| 20260505005014 | 18 | 344 | 0.0 | 0.0 | 0.00 | 0.00 | 0.00 | 74 | 1014.4 |
| 20260505004508 | 18 | 344 | 0.0 | 0.0 | 0.00 | 0.00 | 0.00 | 74 | 1014.1 |
| 20260505004001 | 18 | 344 | 0.0 | 0.0 | 0.00 | 0.00 | 0.00 | 73 | 1014.1 |
| 20260505003455 | 18 | 344 | 0.0 | 0.0 | 0.00 | 0.00 | 0.00 | 73 | 1014.0 |
| 20260505002949 | 18 | 343 | 0.0 | 0.0 | 0.00 | 0.00 | 0.00 | 72 | 1013.9 |
| 20260505002443 | 18 | 341 | 0.0 | 0.0 | 0.00 | 0.00 | 0.00 | 72 | 1014.0 |
| 20260505001938 | 18 | 341 | 0.0 | 0.0 | 0.00 | 0.00 | 0.00 | 72 | 1013.9 |
| 20260505001431 | 18 | 341 | 0.0 | 0.0 | 0.00 | 0.00 | 0.00 | 72 | 1013.8 |
| 20260505000925 | 18 | 341 | 0.0 | 0.0 | 0.00 | 0.00 | 0.00 | 72 | 1013.9 |
| 20260505000420 | 18 | 341 | 0.0 | 0.0 | 0.00 | 0.00 | 0.00 | 71 | 1013.8 |
| 20260504235913 | 18 | 341 | 0.0 | 0.0 | 0.00 | 0.00 | 0.00 | 71 | 1013.8 |
| 20260504235407 | 18 | 341 | 0.0 | 0.0 | 0.00 | 0.00 | 0.00 | 71 | 1013.7 |
| 20260504234901 | 18 | 341 | 0.0 | 0.0 | 0.00 | 0.00 | 0.00 | 72 | 1013.7 |
| 20260504234619 | 18 | 341 | 0.0 | 0.0 | 0.00 | 0.00 | 0.00 | 71 | 1013.6 |
| 20260504233849 | 18 | 341 | 0.0 | 0.0 | 0.00 | 0.00 | 0.00 | 71 | 1013.5 |
| 20260504233343 | 18 | 341 | 0.0 | 0.0 | 0.00 | 0.00 | 0.00 | 71 | 1013.3 |
| 20260504232837 | 18 | 341 | 0.0 | 0.0 | 0.00 | 0.00 | 0.00 | 71 | 1013.3 |
| 20260504232331 | 18 | 341 | 0.0 | 0.0 | 0.00 | 0.00 | 0.00 | 72 | 1013.2 |
| 20260504231825 | 18 | 341 | 0.0 | 0.0 | 0.00 | 0.00 | 0.00 | 72 | 1013.1 |
| 20260504231319 | 18 | 329 | 0.0 | 0.0 | 0.00 | 0.00 | 0.00 | 73 | 1013.0 |
| 20260504230813 | 18 | 329 | 0.0 | 0.0 | 0.00 | 0.00 | 0.00 | 73 | 1013.0 |
| 20260504230308 | 18 | 329 | 0.0 | 0.0 | 0.00 | 0.00 | 0.00 | 73 | 1012.9 |
| 20260504225801 | 18 | 330 | 0.0 | 0.0 | 0.00 | 0.00 | 0.00 | 73 | 1012.8 |
| 20260504225255 | 18 | 330 | 0.0 | 0.0 | 0.00 | 0.00 | 0.00 | 73 | 1012.8 |
| 20260504224749 | 19 | 330 | 0.0 | 0.0 | 0.00 | 0.00 | 0.00 | 73 | 1012.8 |
| 20260504224243 | 19 | 330 | 0.0 | 0.0 | 0.00 | 0.00 | 0.00 | 73 | 1012.8 |
| 20260504223742 | 19 | 330 | 0.0 | 0.0 | 0.00 | 0.00 | 0.00 | 73 | 1012.7 |
| 20260504223239 | 19 | 330 | 0.0 | 0.0 | 0.00 | 0.00 | 0.00 | 72 | 1012.7 |
| 20260504222739 | 19 | 329 | 0.0 | 0.0 | 0.00 | 0.00 | 0.00 | 72 | 1012.5 |
| 20260504222235 | 19 | 327 | 1.6 | 4.8 | 0.00 | 0.00 | 0.00 | 71 | 1012.5 |
| 20260504221738 | 19 | 325 | 3.2 | 6.4 | 0.00 | 0.00 | 0.00 | 71 | 1012.2 |
| 20260504221236 | 19 | 325 | 1.6 | 6.4 | 0.00 | 0.00 | 0.00 | 70 | 1012.2 |
| 20260504220731 | 19 | 23 | 0.0 | 4.8 | 0.00 | 0.00 | 0.00 | 70 | 1012.4 |
| 20260504220231 | 20 | 72 | 0.0 | 0.0 | 0.00 | 0.00 | 0.00 | 69 | 1012.2 |
| 20260504215729 | 20 | 72 | 0.0 | 3.2 | 0.00 | 0.00 | 0.00 | 69 | 1012.2 |
| 20260504215457 | 20 | 72 | 1.6 | 3.2 | 0.00 | 0.00 | 0.00 | 68 | 1012.2 |
| 20260504214729 | 20 | 72 | 0.0 | 3.2 | 0.00 | 0.00 | 0.00 | 69 | 1012.2 |
| 20260504214228 | 20 | 72 | 0.0 | 0.0 | 0.00 | 0.00 | 0.00 | 69 | 1012.2 |
| 20260504213729 | 20 | 72 | 0.0 | 0.0 | 0.00 | 0.00 | 0.00 | 68 | 1012.2 |
| 20260504213225 | 20 | 72 | 0.0 | 0.0 | 0.00 | 0.00 | 0.00 | 68 | 1012.2 |
| 20260504212725 | 20 | 72 | 0.0 | 0.0 | 0.00 | 0.00 | 0.00 | 66 | 1012.1 |
| 20260504212227 | 20 | 72 | 0.0 | 0.0 | 0.00 | 0.00 | 0.00 | 66 | 1012.1 |
| 20260504211726 | 20 | 72 | 0.0 | 0.0 | 0.00 | 0.00 | 0.00 | 66 | 1012.1 |
| 20260504211225 | 20 | 72 | 0.0 | 0.0 | 0.00 | 0.00 | 0.00 | 66 | 1012.1 |
| 20260504210723 | 20 | 72 | 0.0 | 0.0 | 0.00 | 0.00 | 0.00 | 65 | 1012.1 |
| 20260504210221 | 20 | 72 | 0.0 | 0.0 | 0.00 | 0.00 | 0.00 | 65 | 1012.1 |
| 20260504205721 | 20 | 72 | 0.0 | 0.0 | 0.00 | 0.00 | 0.00 | 65 | 1012.1 |
| 20260504205219 | 20 | 72 | 0.0 | 0.0 | 0.00 | 0.00 | 0.00 | 65 | 1012.1 |
| 20260504204717 | 20 | 72 | 0.0 | 0.0 | 0.00 | 0.00 | 0.00 | 65 | 1012.1 |
| 20260504204450 | 20 | 72 | 0.0 | 0.0 | 0.00 | 0.00 | 0.00 | 64 | 1012.0 |
| 20260504203443 | 20 | 72 | 0.0 | 0.0 | 0.00 | 0.00 | 0.00 | 63 | 1012.0 |
| 20260504202723 | 21 | 72 | 0.0 | 0.0 | 0.00 | 0.00 | 0.00 | 62 | 1011.9 |
| 20260504202218 | 21 | 72 | 0.0 | 0.0 | 0.00 | 0.00 | 0.00 | 61 | 1012.0 |
| 20260504201719 | 21 | 72 | 1.6 | 4.8 | 0.00 | 0.00 | 0.00 | 60 | 1011.9 |
| 20260504201217 | 21 | 72 | 1.6 | 8.0 | 0.00 | 0.00 | 0.00 | 60 | 1011.9 |
| 20260504200715 | 21 | 71 | 1.6 | 8.0 | 0.00 | 0.00 | 0.00 | 59 | 1011.9 |
| 20260504200215 | 21 | 73 | 0.0 | 4.8 | 0.00 | 0.00 | 0.00 | 59 | 1011.9 |
| 20260504195715 | 20 | 73 | 1.6 | 6.4 | 0.00 | 0.00 | 0.00 | 59 | 1012.0 |
| 20260504195215 | 20 | 73 | 1.6 | 6.4 | 0.00 | 0.00 | 0.00 | 60 | 1011.9 |
| 20260504194714 | 20 | 56 | 1.6 | 6.4 | 0.00 | 0.00 | 0.00 | 62 | 1011.9 |
| 20260504194215 | 20 | 36 | 0.0 | 0.0 | 0.00 | 0.00 | 0.00 | 64 | 1011.8 |
| 20260504193714 | 21 | 35 | 0.0 | 0.0 | 0.00 | 0.00 | 0.00 | 65 | 1011.8 |
| 20260504193213 | 21 | 35 | 0.0 | 0.0 | 0.00 | 0.00 | 0.00 | 65 | 1011.7 |
| 20260504192713 | 21 | 35 | 0.0 | 0.0 | 0.00 | 0.00 | 0.00 | 65 | 1011.7 |
| 20260504192216 | 21 | 35 | 0.0 | 0.0 | 0.00 | 0.00 | 0.00 | 65 | 1011.7 |
| 20260504191713 | 21 | 35 | 0.0 | 0.0 | 0.00 | 0.00 | 0.00 | 65 | 1011.7 |
| 20260504191214 | 21 | 35 | 0.0 | 0.0 | 0.00 | 0.00 | 0.00 | 66 | 1011.6 |
| 20260504190715 | 21 | 35 | 0.0 | 0.0 | 0.00 | 0.00 | 0.00 | 65 | 1011.6 |
| 20260504190212 | 21 | 35 | 0.0 | 0.0 | 0.00 | 0.00 | 0.00 | 65 | 1011.5 |
| 20260504185715 | 21 | 35 | 0.0 | 0.0 | 0.00 | 0.00 | 0.00 | 65 | 1011.4 |
| 20260504185209 | 21 | 35 | 0.0 | 0.0 | 0.00 | 0.00 | 0.00 | 65 | 1011.3 |
| 20260504184704 | 21 | 30 | 0.0 | 0.0 | 0.00 | 0.00 | 0.00 | 65 | 1011.3 |
| 20260504184159 | 21 | 30 | 0.0 | 0.0 | 0.00 | 0.00 | 0.00 | 65 | 1011.1 |
| 20260504183652 | 21 | 30 | 0.0 | 0.0 | 0.00 | 0.00 | 0.00 | 64 | 1011.1 |
| 20260504183145 | 21 | 30 | 0.0 | 0.0 | 0.00 | 0.00 | 0.00 | 64 | 1011.1 |
| 20260504182639 | 21 | 30 | 1.6 | 4.8 | 0.00 | 0.00 | 0.00 | 64 | 1011.0 |
| 20260504182133 | 21 | 23 | 3.2 | 6.4 | 0.00 | 0.00 | 0.00 | 64 | 1010.8 |
| 20260504181627 | 21 | 23 | 3.2 | 6.4 | 0.00 | 0.00 | 0.00 | 64 | 1010.6 |
| 20260504181127 | 21 | 333 | 1.6 | 6.4 | 0.00 | 0.00 | 0.00 | 63 | 1010.6 |
| 20260504180627 | 21 | 95 | 1.6 | 4.8 | 0.00 | 0.00 | 0.00 | 61 | 1010.6 |
| 20260504180123 | 21 | 101 | 1.6 | 4.8 | 0.00 | 0.00 | 0.00 | 60 | 1010.7 |
| 20260504175623 | 21 | 101 | 3.2 | 4.8 | 0.00 | 0.00 | 0.00 | 59 | 1010.6 |
| 20260504175125 | 21 | 101 | 1.6 | 4.8 | 0.00 | 0.00 | 0.00 | 59 | 1010.7 |
| 20260504174623 | 21 | 111 | 0.0 | 4.8 | 0.00 | 0.00 | 0.00 | 59 | 1010.9 |
| 20260504174353 | 21 | 155 | 0.0 | 3.2 | 0.00 | 0.00 | 0.00 | 60 | 1010.9 |
| 20260504173847 | 21 | 155 | 1.6 | 4.8 | 0.00 | 0.00 | 0.00 | 60 | 1010.9 |
| 20260504173125 | 21 | 155 | 1.6 | 4.8 | 0.00 | 0.00 | 0.00 | 60 | 1010.9 |
| 20260504172853 | 21 | 162 | 0.0 | 0.0 | 0.00 | 0.00 | 0.00 | 60 | 1010.9 |
| 20260504172123 | 21 | 163 | 0.0 | 0.0 | 0.00 | 0.00 | 0.00 | 59 | 1010.9 |
| 20260504171844 | 21 | 163 | 0.0 | 0.0 | 0.00 | 0.00 | 0.00 | 59 | 1010.9 |
| 20260504171121 | 21 | 163 | 0.0 | 0.0 | 0.00 | 0.00 | 0.00 | 59 | 1010.9 |
| 20260504170621 | 21 | 162 | 0.0 | 0.0 | 0.00 | 0.00 | 0.00 | 59 | 1011.0 |
| 20260504170117 | 21 | 163 | 0.0 | 0.0 | 0.00 | 0.00 | 0.00 | 60 | 1011.1 |
| 20260504160109 | 22 | 163 | 0.0 | 0.0 | 0.00 | 0.00 | 0.00 | 57 | 1011.0 |
| 20260504151103 | 22 | 181 | 8.0 | 14.5 | 0.00 | 0.00 | 0.00 | 56 | 1010.4 |
| 20260504150605 | 22 | 144 | 8.0 | 16.1 | 0.00 | 0.00 | 0.00 | 56 | 1010.5 |
| 20260504150105 | 22 | 196 | 8.0 | 16.1 | 0.00 | 0.00 | 0.00 | 56 | 1010.5 |
| 20260504141104 | 24 | 162 | 6.4 | 14.5 | 0.00 | 0.00 | 0.00 | 51 | 1009.4 |
| 20260504140602 | 24 | 157 | 8.0 | 19.3 | 0.00 | 0.00 | 0.00 | 51 | 1009.3 |
| 20260504130545 | 25 | 89 | 11.3 | 22.5 | 0.00 | 0.00 | 0.00 | 51 | 1009.5 |
| 20260504110444 | 27 | 92 | 9.7 | 20.9 | 0.00 | 0.00 | 0.00 | 47 | 1009.1 |
| 20260504100329 | 26 | 94 | 9.7 | 24.1 | 0.00 | 0.00 | 0.00 | 55 | 1010.0 |
| 20260504081622 | 28 | 58 | 3.2 | 9.7 | 0.00 | 0.00 | 0.00 | 52 | 1009.0 |
| 20260504081121 | 28 | 44 | 3.2 | 8.0 | 0.00 | 0.00 | 0.00 | 53 | 1009.1 |
| 20260504080611 | 27 | 45 | 4.8 | 12.9 | 0.00 | 0.00 | 0.00 | 54 | 1009.3 |
| 20260504080350 | 27 | 333 | 4.8 | 12.9 | 0.00 | 0.00 | 0.00 | 54 | 1009.5 |